Showing default

EXPLORER 36 (GEOS 2), 3093

Orbit data source: Space-Track

EXPLORER 36 (GEOS 2), 3093 is a payload satellite owned by GSFC (US) in LEO that was launched on Thu, 11 Jan 1968 UTC via a THOR DELTA E1 launch vehicle from the Air Force Western Test Range (AFWTR). Payload-class satellites include a variety of spacecraft equipped with specific instruments for various scientific and technological missions. These include communications satellites like Starlink; space stations such as the ISS; scientific satellites like the Hubble; Earth observation satellites from companies like Planet Labs, Umbra, and HawkEye 360; GPS; miniature CubeSats for education and research; and military/defense satellites.

Loading next visibility...
Identifier
3093, 1968-002A
Orbit
LEO
Country
Flag of USUS
Related business
Manufacturer
APL
Mission
Spacecraft
Bus & Motor
ANNA, Unknown motor
Mass
212 kg wet, 212 kg dry
Launch date (UTC)
1968-01-11 (58 years ago)
Launch vehicle
THOR DELTA E1
Launch site
Air Force Western Test Range (AFWTR)
Object type
Payload
Rocket body
Debris
Shape & HBR
Unknown
Radar Cross Section
Large (>1 m²)

Expand to show TLE details & history
Last TLE update: 7 hours ago

TLE from 7 hours ago
0 EXPLORER 36 (GEOS 2)
1  3093U 68002A   25318.71635670 -.00000020  00000-0  18227-3 0  9991
2  3093 105.8013 119.5128 0318062  93.8352 281.0319 12.83595863709844
Epoch: 2025-11-14T17:11Z
TLE epoch observation values (Epoch: 2025-11-14T17:11:33.218Z)
Latitude
10.7925°
Longitude
164.49167°
Altitude
1,289.404 km
Speed
7.231 km/s
True Right ascension
07h 45m 44s
True Declination
10° 44' 02"
Sunlit
Object was in daylight at epoch
Visualization orbit readout
Latitude
Unknown
Longitude
Unknown
Altitude
Unknown
Speed
Unknown
Apparent Right ascension
Unknown
Apparent Declination
Unknown
Sunlit
N/A
Visualization observer readout
Local Sidereal Time
21:16:48
Azimuth
Unknown
Elevation
Unknown
Doppler factor
Unknown
Orbital elements
Apogee altitude
1,569.828 km
Perigee altitude
1,079.824 km
Semi-major axis
7,702.963 km
Eccentricity
0.03181
Inclination
105.8013°
RAAN
119.5128°
Arg. of periapsis
93.8352°
True anomaly
277.42949°
Mean anomaly
281.0319°
Eccentric anomaly
279.23315°
Mean motion
3.21038 °/min
Orbital period
112.14 mins
BSTAR
0.00018227
Loading maneuver chart data...
Computing Atmospheric mass density...
Loading historical data...
Loading historical data...
Loading historical data...
Loading historical data...
Loading historical data...
Loading historical data...
Loading historical data...

Documentation

Showing up to 5 results
|